Morgantown, WV

11:24 AM EDT on October 17, 2017 (GMT -0400)
Morgantown Municipal-Hart

Weather History for KMGW - December, 2013

Change the Weather History Date:

Wednesday, December 11, 2013

  Actual Average Record
Temperature  
Mean Temperature 27 °F 36 °F  
Max Temperature 33 °F 43 °F 68 °F (1979)
Min Temperature 21 °F 28 °F 1 °F (1958)
Degree Days  
Heating Degree Days 38 29  
Month to date heating degree days 286 304  
Since 1 July heating degree days 1403 1352  
Cooling Degree Days 0 0  
Month to date cooling degree days 0 0  
Year to date cooling degree days 906 814  
Moisture  
Dew Point 15 °F    
Average Humidity 59    
Maximum Humidity 77    
Minimum Humidity 41    
Precipitation  
Precipitation T in 0.10 in 1.15 in (1997)
Month to date precipitation 2.38 1.12  
Year to date precipitation 38.92 40.04  
Sea Level Pressure  
Sea Level Pressure 30.35 in    
Wind  
Wind Speed 6 mph (SW)    
Max Wind Speed 14 mph    
Max Gust Speed 21 mph    
Visibility 10 miles    
Events      
T = Trace of Precipitation, MM = Missing Value Source: NWS Daily Summary

Daily Weather History Graph

Daily Weather History Graph

Search for Another Location

Airport or City:

Trip Planner

Search our weather history database for the weather conditions in past years. The results will help you decide how hot, cold, wet, or windy it might be!

Date:

Astronomy

Dec. 11, 2013 Rise Set
Actual Time 7:30 AM EST 4:55 PM EST
Civil Twilight 7:00 AM EST 5:25 PM EST
Nautical Twilight 6:26 AM EST 5:59 PM EST
Astronomical Twilight 5:53 AM EST 6:32 PM EST
Moon 1:27 PM EST (12/11) 1:51 AM EST (12/11)
Length of Visible Light 10h 25m
Length of Day
9h 25m
Waxing Gibbous, 71% of the Moon is Illuminated
Dec 11
Waxing Gibbous
Dec 17
Full
Dec 25
Last Quarter
Jan 1
New
Jan 7
First Quarter

Hourly Weather History & Observations

Time (EST) Temp. Windchill Dew Point Humidity Pressure Visibility Wind Dir Wind Speed Gust Speed Precip Events Conditions
12:53 AM 26.1 °F 16.8 °F 12.9 °F 58% 30.34 in 10.0 mi West 9.2 mph 16.1 mph N/A   Overcast
1:53 AM 25.0 °F 16.3 °F 12.9 °F 60% 30.35 in 10.0 mi WSW 8.1 mph - N/A   Overcast
2:53 AM 24.1 °F 18.2 °F 12.9 °F 62% 30.37 in 10.0 mi Variable 4.6 mph - N/A   Mostly Cloudy
3:53 AM 23.0 °F 14.7 °F 12.9 °F 65% 30.37 in 10.0 mi SW 6.9 mph - N/A   Clear
4:53 AM 21.9 °F 13.4 °F 12.9 °F 68% 30.38 in 10.0 mi SW 6.9 mph - N/A   Clear
5:53 AM 21.9 °F 15.7 °F 14.0 °F 72% 30.39 in 10.0 mi SW 4.6 mph - N/A   Clear
6:53 AM 21.0 °F 14.6 °F 14.0 °F 74% 30.41 in 10.0 mi South 4.6 mph - N/A   Clear
7:53 AM 21.0 °F 13.4 °F 14.0 °F 74% 30.42 in 10.0 mi SSW 5.8 mph - N/A   Clear
8:53 AM 21.9 °F 14.5 °F 15.1 °F 75% 30.41 in 10.0 mi South 5.8 mph - N/A   Clear
9:53 AM 25.0 °F 18.1 °F 15.1 °F 66% 30.41 in 10.0 mi Variable 5.8 mph - N/A   Clear
10:53 AM 27.0 °F 19.5 °F 15.1 °F 61% 30.40 in - SSW 6.9 mph - N/A   Scattered Clouds
11:53 AM 28.0 °F 20.0 °F 12.9 °F 53% 30.38 in 10.0 mi SSW 8.1 mph 19.6 mph N/A   Mostly Cloudy
12:53 PM 30.0 °F 24.1 °F 12.9 °F 49% 30.33 in 10.0 mi Variable 5.8 mph - N/A   Scattered Clouds
1:53 PM 30.9 °F 23.5 °F 12.0 °F 46% 30.30 in 10.0 mi SW 8.1 mph 18.4 mph N/A   Clear
2:53 PM 33.1 °F 26.9 °F 12.9 °F 43% 30.29 in 10.0 mi Variable 6.9 mph 16.1 mph N/A   Mostly Cloudy
3:53 PM 33.1 °F 26.9 °F 12.9 °F 43% 30.28 in 10.0 mi SW 6.9 mph - N/A   Clear
4:53 PM 32.0 °F 26.4 °F 15.1 °F 50% 30.28 in 10.0 mi SSW 5.8 mph - N/A   Scattered Clouds
5:53 PM 30.9 °F 26.2 °F 16.0 °F 54% 30.28 in 10.0 mi SSW 4.6 mph - N/A   Clear
6:53 PM 30.0 °F 26.5 °F 16.0 °F 56% 30.28 in 10.0 mi SSW 3.5 mph - N/A   Clear
7:53 PM 30.9 °F 27.5 °F 17.1 °F 57% 30.29 in 10.0 mi SSW 3.5 mph - N/A   Overcast
8:53 PM 30.9 °F 25.2 °F 18.0 °F 59% 30.30 in 10.0 mi West 5.8 mph - N/A   Overcast
9:53 PM 30.9 °F 22.8 °F 17.1 °F 57% 30.32 in 10.0 mi West 9.2 mph - N/A   Overcast
10:53 PM 28.9 °F 21.1 °F 19.0 °F 67% 30.35 in 10.0 mi NW 8.1 mph - N/A   Overcast
11:53 PM 27.0 °F 20.5 °F 17.1 °F 66% 30.38 in 10.0 mi WNW 5.8 mph 17.3 mph 0.00 in   Overcast